Date String (YYYY-MM-DD hh:mm:ss) UTC,Instrument flags,Ambient pressure (hPa),Sample flow (lpm),Bypass flow (lpm),Sample temperature (°C),Ambient temperature (°C),ASC tube jacket temperature (°C),LED temperature (°C),Box temperature (°C),Sample RH (%),Span deviation,Mass concentration (μg/m³),Mass concentration (μg/m³),Mass concentration (μg/m³)
DateTimeUTC,F1_M11,P_M11,Q1_M11,Q2_M11,T1_M11,T2_M11,T3_M11,T4_M11,T5_M11,U1_M11,ZSPAN_M11,X2_M11,X0_M11,X1_M11
2022-03-06 07:00:00,,0824.1,5.00,0.00,21.4,20.9,00.0,30.7,22.9,11.3,0000.0,0003.36,0003.95,0003.24
2022-03-06 07:01:00,,0824.1,5.00,0.00,21.4,20.7,00.0,30.6,22.8,11.4,0000.0,0003.53,0004.25,0003.42
2022-03-06 07:02:00,,0824.1,5.01,0.00,21.3,20.6,00.0,30.6,22.8,11.4,0000.0,0003.66,0004.46,0003.57
2022-03-06 07:03:00,,0824.0,4.99,0.00,21.3,20.7,00.0,30.6,22.8,11.5,0000.0,0003.81,0004.76,0003.71
2022-03-06 07:04:00,,0824.0,5.00,0.00,21.4,21.6,00.0,30.6,23.2,11.4,0000.0,0003.93,0005.04,0003.82
2022-03-06 07:05:00,,0824.0,5.00,0.00,21.6,22.6,00.0,30.7,23.5,11.3,0000.0,0004.00,0005.15,0003.90
2022-03-06 07:06:00,,0824.1,5.00,0.00,21.8,22.8,00.0,30.7,23.7,11.1,0000.0,0004.07,0005.29,0003.96
2022-03-06 07:07:00,,0824.1,5.00,0.00,21.8,22.4,00.0,30.7,23.6,11.1,0000.0,0004.09,0005.33,0003.97
2022-03-06 07:08:00,,0824.1,5.00,0.00,21.7,22.1,00.0,30.7,23.4,11.1,0000.0,0004.05,0005.22,0003.95
2022-03-06 07:09:00,,0824.1,5.01,0.00,21.7,21.8,00.0,30.7,23.3,11.1,0000.0,0003.96,0005.01,0003.87
2022-03-06 07:10:00,,0824.1,5.01,0.00,21.6,21.5,00.0,30.7,23.2,11.2,0000.0,0003.86,0004.82,0003.77
2022-03-06 07:11:00,,0824.1,5.00,0.00,21.6,21.3,00.0,30.7,23.1,11.2,0000.0,0003.71,0004.51,0003.64
2022-03-06 07:12:00,,0824.0,4.99,0.00,21.5,21.1,00.0,30.7,23.1,11.3,0000.0,0003.53,0004.22,0003.45
2022-03-06 07:13:00,,0824.1,5.00,0.00,21.5,21.0,00.0,30.7,23.0,11.3,0000.0,0003.40,0003.97,0003.31
2022-03-06 07:14:00,,0824.1,5.01,0.00,21.4,20.9,00.0,30.6,23.0,11.3,0000.0,0003.27,0004.14,0003.20
2022-03-06 07:15:00,,0824.1,5.00,0.00,21.4,20.8,00.0,30.6,22.9,11.4,0000.0,0003.18,0004.77,0003.09
2022-03-06 07:16:00,,0824.1,5.00,0.00,21.4,20.8,00.0,30.6,22.9,11.5,0000.0,0003.08,0004.62,0002.95
2022-03-06 07:17:00,,0824.0,5.00,0.00,21.5,21.4,00.0,30.6,23.2,11.4,0000.0,0002.97,0004.54,0002.82
2022-03-06 07:18:00,,0824.1,5.00,0.00,21.6,22.3,00.0,30.7,23.5,11.4,0000.0,0002.94,0004.53,0002.77
2022-03-06 07:19:00,,0824.1,5.00,0.00,21.8,22.8,00.0,30.7,23.8,11.3,0000.0,0002.93,0004.54,0002.74
2022-03-06 07:20:00,,0824.1,5.01,0.00,21.8,22.5,00.0,30.7,23.7,11.2,0000.0,0002.92,0004.74,0002.73
2022-03-06 07:21:00,,0824.1,4.99,0.00,21.8,22.2,00.0,30.7,23.6,11.3,0000.0,0002.89,0004.69,0002.71
2022-03-06 07:22:00,,0824.1,5.00,0.00,21.8,21.9,00.0,30.7,23.5,11.3,0000.0,0002.87,0004.68,0002.68
2022-03-06 07:23:00,,0824.1,5.00,0.00,21.8,21.7,00.0,30.7,23.4,11.3,0000.0,0002.84,0004.62,0002.66
2022-03-06 07:24:00,,0824.1,4.99,0.00,21.7,21.5,00.0,30.7,23.3,11.3,0000.0,0002.80,0004.57,0002.63
2022-03-06 07:25:00,,0824.1,4.99,0.00,21.7,21.3,00.0,30.7,23.2,11.3,0000.0,0002.81,0004.17,0002.62
2022-03-06 07:26:00,,0824.1,5.01,0.00,21.6,21.2,00.0,30.7,23.2,11.4,0000.0,0002.80,0003.40,0002.61
2022-03-06 07:27:00,,0824.1,5.00,0.00,21.6,21.1,00.0,30.7,23.1,11.4,0000.0,0002.80,0003.42,0002.60
2022-03-06 07:28:00,,0824.1,4.99,0.00,21.5,21.0,00.0,30.7,23.1,11.4,0000.0,0002.76,0003.35,0002.58
2022-03-06 07:29:00,,0824.1,5.00,0.00,21.5,20.9,00.0,30.7,23.0,11.5,0000.0,0002.72,0003.29,0002.57
2022-03-06 07:30:00,,0824.1,5.00,0.00,21.5,21.2,00.0,30.7,23.1,11.5,0000.0,0002.70,0003.25,0002.56
2022-03-06 07:31:00,,0824.0,4.99,0.00,21.7,22.1,00.0,30.7,23.5,11.4,0000.0,0002.68,0003.03,0002.55
2022-03-06 07:32:00,,0824.1,5.00,0.00,21.8,22.9,00.0,30.8,23.8,11.3,0000.0,0002.67,0003.01,0002.54
2022-03-06 07:33:00,,0824.0,5.00,0.00,21.9,22.8,00.0,30.8,23.9,11.3,0000.0,0002.68,0003.00,0002.55
2022-03-06 07:34:00,,0824.1,5.01,0.00,21.9,22.4,00.0,30.8,23.7,11.3,0000.0,0002.67,0002.98,0002.55
2022-03-06 07:35:00,,0824.1,5.01,0.00,21.9,22.1,00.0,30.8,23.6,11.3,0000.0,0002.69,0003.02,0002.56
2022-03-06 07:36:00,,0824.1,4.99,0.00,21.9,21.9,00.0,30.8,23.5,11.3,0000.0,0002.70,0003.01,0002.57
2022-03-06 07:37:00,,0824.0,5.00,0.00,21.8,21.7,00.0,30.8,23.4,11.4,0000.0,0002.71,0002.98,0002.59
2022-03-06 07:38:00,,0824.1,4.99,0.00,21.8,21.5,00.0,30.8,23.4,11.4,0000.0,0002.75,0003.03,0002.62
2022-03-06 07:39:00,,0824.0,5.01,0.00,21.7,21.3,00.0,30.8,23.3,11.5,0000.0,0002.80,0003.61,0002.65
2022-03-06 07:40:00,,0824.1,5.01,0.00,21.7,21.2,00.0,30.8,23.3,11.5,0000.0,0002.84,0003.80,0002.68
2022-03-06 07:41:00,,0824.0,5.00,0.00,21.6,21.1,00.0,30.8,23.2,11.6,0000.0,0002.88,0003.87,0002.72
2022-03-06 07:42:00,,0824.1,5.00,0.00,21.6,21.0,00.0,30.8,23.1,11.7,0000.0,0002.92,0003.91,0002.75
2022-03-06 07:43:00,,0824.0,4.99,0.00,21.5,20.9,00.0,30.7,23.1,11.7,0000.0,0002.98,0004.02,0002.80
2022-03-06 07:44:00,,0824.1,5.01,0.00,21.5,20.9,00.0,30.7,23.1,11.8,0000.0,0003.04,0004.13,0002.84
2022-03-06 07:45:00,,0824.0,4.99,0.00,21.6,21.7,00.0,30.8,23.3,11.7,0000.0,0003.08,0004.17,0002.88
2022-03-06 07:46:00,,0824.1,5.01,0.00,21.8,22.6,00.0,30.8,23.7,11.7,0000.0,0003.13,0004.28,0002.92
2022-03-06 07:47:00,,0824.1,5.00,0.00,21.9,22.8,00.0,30.8,23.9,11.6,0000.0,0003.14,0004.29,0002.94
2022-03-06 07:48:00,,0824.0,4.99,0.00,21.9,22.5,00.0,30.8,23.8,11.6,0000.0,0003.16,0004.31,0002.97
2022-03-06 07:49:00,,0824.0,5.01,0.00,21.9,22.2,00.0,30.9,23.7,11.6,0000.0,0003.16,0004.29,0002.98
2022-03-06 07:50:00,,0824.0,4.99,0.00,21.9,21.9,00.0,30.9,23.6,11.7,0000.0,0003.17,0003.82,0003.00
2022-03-06 07:51:00,,0824.0,5.00,0.00,21.9,21.6,00.0,30.9,23.5,11.7,0000.0,0003.20,0003.80,0003.04
2022-03-06 07:52:00,,0824.1,5.00,0.00,21.8,21.4,00.0,30.9,23.5,11.8,0000.0,0003.22,0004.13,0003.04
2022-03-06 07:53:00,,0824.0,5.01,0.00,21.8,21.3,00.0,30.8,23.4,11.8,0000.0,0003.24,0004.50,0003.06
2022-03-06 07:54:00,,0824.1,4.99,0.00,21.8,21.1,00.0,30.8,23.4,11.9,0000.0,0003.25,0004.61,0003.06
2022-03-06 07:55:00,,0824.0,5.01,0.00,21.7,21.0,00.0,30.8,23.3,12.0,0000.0,0003.25,0004.61,0003.06
2022-03-06 07:56:00,,0824.0,4.99,0.00,21.7,20.8,00.0,30.8,23.2,12.0,0000.0,0003.26,0004.66,0003.06
2022-03-06 07:57:00,,0824.0,5.00,0.00,21.6,20.6,00.0,30.7,23.1,12.1,0000.0,0003.27,0004.70,0003.07
2022-03-06 07:58:00,,0824.0,5.00,0.00,21.5,20.5,00.0,30.7,23.1,12.1,0000.0,0003.27,0004.72,0003.08
2022-03-06 07:59:00,,0824.0,4.99,0.00,21.5,20.4,00.0,30.7,23.0,12.2,0000.0,0003.26,0004.90,0003.07
